When you browse on this site, cookies collect data to enhance your experience and personalize the content and advertising you see.
Visit our Privacy Policy to learn more. By continuing to use the site, you agree to this use of cookies and data.
  • Em Portugal
  • Lista de países
  • Para 7 dias
  • Temperatura da água
  • Mapa do tempo
  • Widgets de tempo
  • user-avatar
    Iniciar Sessão

    Previsão horária em Schigrovskiy 1-y

    Hoje, 26 Agosto, Segunda-feira

    Tempo Temperatura Precipitação Vento Pressão Humidade
    00:00 +14°C° 0 mm 1 m/s 753 mmHg 87%
    01:00 +13°C° 0 mm 1 m/s 753 mmHg 89%
    02:00 +13°C° 0 mm 1 m/s 754 mmHg 91%
    03:00 +13°C° 0 mm 1 m/s 754 mmHg 91%
    04:00 +12°C° 0 mm 1 m/s 754 mmHg 92%
    05:00 +12°C° 0 mm 1 m/s 754 mmHg 93%
    06:00 +14°C° 0 mm 1 m/s 754 mmHg 87%
    07:00 +16°C° 0 mm 1 m/s 754 mmHg 81%
    08:00 +18°C° 0 mm 1 m/s 754 mmHg 75%
    09:00 +20°C° 0 mm 1 m/s 754 mmHg 69%
    10:00 +21°C° 0 mm 1 m/s 754 mmHg 64%
    11:00 +22°C° 0 mm 1 m/s 753 mmHg 59%
    12:00 +23°C° 0 mm 1 m/s 753 mmHg 58%
    13:00 +23°C° 0 mm 1 m/s 753 mmHg 56%
    14:00 +23°C° 0 mm 1 m/s 753 mmHg 54%
    15:00 +23°C° 0 mm 1 m/s 752 mmHg 58%
    16:00 +23°C° 0 mm 1 m/s 752 mmHg 61%
    17:00 +22°C° 0 mm 1 m/s 751 mmHg 65%
    18:00 +21°C° 0 mm 1 m/s 751 mmHg 68%
    19:00 +19°C° 0 mm 1 m/s 751 mmHg 71%
    20:00 +16°C° 0 mm 2 m/s 751 mmHg 74%
    21:00 +16°C° 0 mm 2 m/s 751 mmHg 77%
    22:00 +15°C° 0 mm 2 m/s 750 mmHg 80%
    23:00 +15°C° 0 mm 2 m/s 750 mmHg 82%

    Amanhã, 27 Agosto, Terça-feira

    Tempo Temperatura Precipitação Vento Pressão Humidade
    00:00 +15°C° 0 mm 2 m/s 750 mmHg 84%
    01:00 +15°C° 0 mm 2 m/s 750 mmHg 85%
    02:00 +14°C° 0 mm 2 m/s 750 mmHg 87%
    03:00 +13°C° 0 mm 3 m/s 749 mmHg 87%
    04:00 +13°C° 0 mm 3 m/s 749 mmHg 87%
    05:00 +13°C° 0 mm 3 m/s 749 mmHg 87%
    06:00 +16°C° 0 mm 3 m/s 748 mmHg 84%
    07:00 +17°C° 0 mm 4 m/s 748 mmHg 82%
    08:00 +18°C° 0 mm 4 m/s 748 mmHg 80%
    09:00 +20°C° 0.1 mm 5 m/s 748 mmHg 76%
    10:00 +21°C° 0.1 mm 5 m/s 748 mmHg 72%
    11:00 +22°C° 0.1 mm 5 m/s 748 mmHg 68%
    12:00 +23°C° 0.2 mm 5 m/s 748 mmHg 67%
    13:00 +23°C° 0.2 mm 5 m/s 748 mmHg 66%
    14:00 +23°C° 0.2 mm 5 m/s 748 mmHg 64%
    15:00 +22°C° 0.1 mm 4 m/s 747 mmHg 66%
    16:00 +22°C° 0.1 mm 4 m/s 747 mmHg 68%
    17:00 +21°C° 0.1 mm 3 m/s 747 mmHg 70%
    18:00 +19°C° 0 mm 3 m/s 748 mmHg 73%
    19:00 +18°C° 0 mm 3 m/s 748 mmHg 77%
    20:00 +16°C° 0 mm 3 m/s 748 mmHg 80%
    21:00 +14°C° 0 mm 3 m/s 748 mmHg 82%
    22:00 +13°C° 0 mm 3 m/s 749 mmHg 84%
    23:00 +13°C° 0 mm 3 m/s 749 mmHg 86%

    Depois de amanhã, 28 Agosto, Quarta-feira

    Tempo Temperatura Precipitação Vento Pressão Humidade
    00:00 +13°C° 0 mm 2 m/s 749 mmHg 88%
    01:00 +12°C° 0 mm 2 m/s 749 mmHg 91%
    02:00 +12°C° 0 mm 2 m/s 749 mmHg 94%
    03:00 +10°C° 0 mm 2 m/s 750 mmHg 94%
    04:00 +10°C° 0 mm 3 m/s 750 mmHg 94%
    05:00 +10°C° 0 mm 3 m/s 750 mmHg 94%
    06:00 +11°C° 0 mm 3 m/s 751 mmHg 87%
    07:00 +12°C° 0 mm 4 m/s 751 mmHg 80%
    08:00 +13°C° 0 mm 4 m/s 751 mmHg 73%
    09:00 +14°C° 0 mm 4 m/s 751 mmHg 68%
    10:00 +15°C° 0 mm 4 m/s 751 mmHg 64%
    11:00 +17°C° 0 mm 4 m/s 751 mmHg 59%
    12:00 +17°C° 0 mm 4 m/s 751 mmHg 57%
    13:00 +18°C° 0 mm 4 m/s 751 mmHg 56%
    14:00 +18°C° 0 mm 4 m/s 751 mmHg 54%
    15:00 +18°C° 0 mm 4 m/s 751 mmHg 57%
    16:00 +17°C° 0 mm 3 m/s 751 mmHg 60%
    17:00 +17°C° 0 mm 3 m/s 751 mmHg 63%
    18:00 +14°C° 0 mm 3 m/s 751 mmHg 65%
    19:00 +13°C° 0 mm 2 m/s 752 mmHg 68%
    20:00 +10°C° 0 mm 2 m/s 752 mmHg 70%
    21:00 +9°C° 0 mm 2 m/s 752 mmHg 72%
    22:00 +9°C° 0 mm 2 m/s 752 mmHg 73%
    23:00 +8°C° 0 mm 2 m/s 752 mmHg 75%

    29 Agosto, Quinta-feira

    Tempo Temperatura Precipitação Vento Pressão Humidade
    00:00 +8°C° 0 mm 2 m/s 753 mmHg 77%
    01:00 +7°C° 0 mm 2 m/s 753 mmHg 78%
    02:00 +8°C° 0 mm 1 m/s 753 mmHg 80%
    03:00 +8°C° 0 mm 1 m/s 753 mmHg 82%
    04:00 +7°C° 0 mm 1 m/s 753 mmHg 83%
    05:00 +7°C° 0 mm 1 m/s 753 mmHg 84%
    06:00 +9°C° 0 mm 1 m/s 753 mmHg 79%
    07:00 +11°C° 0 mm 1 m/s 753 mmHg 74%
    08:00 +12°C° 0 mm 1 m/s 753 mmHg 69%
    09:00 +14°C° 0 mm 2 m/s 753 mmHg 64%
    10:00 +15°C° 0 mm 2 m/s 753 mmHg 59%
    11:00 +16°C° 0 mm 2 m/s 753 mmHg 53%
    12:00 +17°C° 0 mm 2 m/s 753 mmHg 52%
    13:00 +17°C° 0 mm 2 m/s 752 mmHg 51%
    14:00 +19°C° 0 mm 1 m/s 752 mmHg 50%
    15:00 +19°C° 0 mm 1 m/s 752 mmHg 54%
    16:00 +19°C° 0 mm 1 m/s 752 mmHg 59%
    17:00 +19°C° 0 mm 1 m/s 751 mmHg 64%
    18:00 +15°C° 0 mm 0 m/s 751 mmHg 67%
    19:00 +13°C° 0 mm 0 m/s 751 mmHg 70%
    20:00 +12°C° 0 mm 0 m/s 751 mmHg 74%
    21:00 +12°C° 0 mm 1 m/s 751 mmHg 75%
    22:00 +12°C° 0 mm 1 m/s 751 mmHg 76%
    23:00 +12°C° 0 mm 1 m/s 751 mmHg 77%

    30 Agosto, Sexta-feira

    Tempo Temperatura Precipitação Vento Pressão Humidade
    00:00 +11°C° 0 mm 1 m/s 751 mmHg 79%
    01:00 +11°C° 0 mm 1 m/s 750 mmHg 80%
    02:00 +11°C° 0 mm 1 m/s 750 mmHg 81%
    03:00 +11°C° 0 mm 1 m/s 750 mmHg 82%
    04:00 +9°C° 0 mm 2 m/s 750 mmHg 83%
    05:00 +9°C° 0 mm 2 m/s 750 mmHg 84%
    06:00 +12°C° 0 mm 2 m/s 750 mmHg 79%
    07:00 +14°C° 0 mm 2 m/s 750 mmHg 74%
    08:00 +16°C° 0 mm 2 m/s 750 mmHg 68%
    09:00 +17°C° 0 mm 2 m/s 750 mmHg 65%
    10:00 +19°C° 0 mm 2 m/s 750 mmHg 61%
    11:00 +21°C° 0 mm 3 m/s 750 mmHg 57%
    12:00 +21°C° 0 mm 3 m/s 749 mmHg 56%
    13:00 +22°C° 0 mm 3 m/s 749 mmHg 55%
    14:00 +23°C° 0 mm 2 m/s 749 mmHg 54%
    15:00 +21°C° 0 mm 2 m/s 749 mmHg 59%
    16:00 +21°C° 0 mm 2 m/s 749 mmHg 64%
    17:00 +20°C° 0 mm 2 m/s 749 mmHg 69%
    18:00 +19°C° 0 mm 2 m/s 749 mmHg 73%
    19:00 +17°C° 0 mm 2 m/s 749 mmHg 77%
    20:00 +15°C° 0 mm 2 m/s 749 mmHg 81%
    21:00 +15°C° 0 mm 1 m/s 749 mmHg 83%
    22:00 +14°C° 0 mm 1 m/s 749 mmHg 86%
    23:00 +13°C° 0 mm 1 m/s 749 mmHg 88%

    31 Agosto, Sábado

    Tempo Temperatura Precipitação Vento Pressão Humidade
    00:00 +13°C° 0 mm 1 m/s 749 mmHg 88%
    01:00 +12°C° 0 mm 0 m/s 749 mmHg 89%
    02:00 +11°C° 0 mm 0 m/s 749 mmHg 90%
    03:00 +11°C° 0 mm 0 m/s 749 mmHg 90%
    04:00 +12°C° 0 mm 1 m/s 749 mmHg 90%
    05:00 +12°C° 0 mm 1 m/s 749 mmHg 90%
    06:00 +14°C° 0 mm 1 m/s 749 mmHg 84%
    07:00 +16°C° 0 mm 1 m/s 749 mmHg 78%
    08:00 +19°C° 0 mm 1 m/s 749 mmHg 72%
    09:00 +20°C° 0 mm 1 m/s 749 mmHg 66%
    10:00 +20°C° 0 mm 2 m/s 749 mmHg 61%
    11:00 +23°C° 0 mm 2 m/s 749 mmHg 56%
    12:00 +23°C° 0 mm 2 m/s 748 mmHg 54%
    13:00 +24°C° 0 mm 2 m/s 748 mmHg 53%
    14:00 +24°C° 0 mm 3 m/s 748 mmHg 51%
    15:00 +23°C° 0 mm 2 m/s 748 mmHg 56%
    16:00 +23°C° 0 mm 2 m/s 748 mmHg 61%
    17:00 +21°C° 0 mm 2 m/s 747 mmHg 65%
    18:00 +19°C° 0 mm 2 m/s 747 mmHg 69%
    19:00 +17°C° 0 mm 2 m/s 747 mmHg 73%
    20:00 +16°C° 0 mm 2 m/s 747 mmHg 76%
    21:00 +15°C° 0 mm 2 m/s 747 mmHg 78%
    22:00 +14°C° 0 mm 1 m/s 747 mmHg 79%
    23:00 +14°C° 0 mm 1 m/s 747 mmHg 80%
    Mostrar mais